Time,TemperatureF,DewpointF,PressureIn,WindDirection,WindDirectionDegrees,WindSpeedMPH,WindSpeedGustMPH,Humidity,HourlyPrecipIn,Conditions,Clouds,dailyrainin,SoftwareType,DateUTC
2013-04-10 00:08:00,29.9,23.3,30.20,NNE,28,0.0,1.0,76,0.00,,---,0.00,VWS V14.01,2013-04-10 05:08:00,
2013-04-10 00:18:00,30.0,23.0,30.19,NNE,28,0.0,0.0,75,0.00,,---,0.00,VWS V14.01,2013-04-10 05:18:00,
2013-04-10 00:23:00,30.0,23.0,30.20,NNE,28,0.0,0.0,75,0.00,,---,0.00,VWS V14.01,2013-04-10 05:23:00,
2013-04-10 00:33:00,30.1,23.1,30.20,NNE,28,0.0,0.0,75,0.00,,---,0.00,VWS V14.01,2013-04-10 05:33:00,
2013-04-10 00:38:00,30.1,23.1,30.20,NNE,28,0.0,2.0,75,0.00,,---,0.00,VWS V14.01,2013-04-10 05:38:00,
2013-04-10 00:48:00,30.0,23.4,30.20,NNE,28,0.0,3.0,76,0.00,,---,0.00,VWS V14.01,2013-04-10 05:48:00,
2013-04-10 00:58:00,29.9,23.3,30.21,NNE,28,0.0,2.0,76,0.00,,---,0.00,VWS V14.01,2013-04-10 05:58:00,
2013-04-10 01:08:00,29.9,23.6,30.22,NNE,29,0.0,0.0,77,0.00,,---,0.00,VWS V14.01,2013-04-10 06:08:00,
2013-04-10 01:13:00,29.9,23.6,30.22,NNE,29,0.0,0.0,77,0.00,,---,0.00,VWS V14.01,2013-04-10 06:13:00,
2013-04-10 01:18:00,29.8,23.5,30.23,NNE,29,0.0,0.0,77,0.00,,---,0.00,VWS V14.01,2013-04-10 06:18:00,
2013-04-10 01:28:00,29.9,23.6,30.23,NNE,29,0.0,0.0,77,0.00,,---,0.00,VWS V14.01,2013-04-10 06:28:00,
2013-04-10 01:38:00,29.8,23.5,30.23,NNE,29,0.0,0.0,77,0.00,,---,0.00,VWS V14.01,2013-04-10 06:38:00,
2013-04-10 01:43:00,29.8,23.2,30.23,NNE,29,0.0,0.0,76,0.00,,---,0.00,VWS V14.01,2013-04-10 06:43:00,
2013-04-10 01:48:00,29.8,23.2,30.24,NNE,29,0.0,0.0,76,0.00,,---,0.00,VWS V14.01,2013-04-10 06:48:00,
2013-04-10 01:53:00,29.9,23.3,30.24,NNE,29,0.0,0.0,76,0.00,,---,0.00,VWS V14.01,2013-04-10 06:53:00,
2013-04-10 01:58:00,29.9,23.3,30.24,NNE,29,0.0,0.0,76,0.00,,---,0.00,VWS V14.01,2013-04-10 06:58:00,
2013-04-10 02:03:00,29.8,23.2,30.24,NNE,29,0.0,0.0,76,0.00,,---,0.00,VWS V14.01,2013-04-10 07:03:00,
2013-04-10 02:13:00,29.8,23.2,30.24,NNE,29,0.0,0.0,76,0.00,,---,0.00,VWS V14.01,2013-04-10 07:13:00,
2013-04-10 02:18:00,29.8,23.2,30.24,NNE,29,0.0,0.0,76,0.00,,---,0.00,VWS V14.01,2013-04-10 07:18:00,
2013-04-10 02:28:00,29.7,23.1,30.24,NNE,29,0.0,1.0,76,0.00,,---,0.00,VWS V14.01,2013-04-10 07:28:00,
2013-04-10 02:38:00,29.5,22.9,30.24,NNE,29,0.0,0.0,76,0.00,,---,0.00,VWS V14.01,2013-04-10 07:38:00,
2013-04-10 02:43:00,29.4,22.8,30.24,NNE,29,0.0,0.0,76,0.00,,---,0.00,VWS V14.01,2013-04-10 07:43:00,
2013-04-10 02:53:00,29.3,22.7,30.23,NNE,29,0.0,1.0,76,0.00,,---,0.00,VWS V14.01,2013-04-10 07:53:00,
2013-04-10 02:58:00,29.2,22.6,30.23,NNE,29,0.0,0.0,76,0.00,,---,0.00,VWS V14.01,2013-04-10 07:58:00,
2013-04-10 03:03:00,29.1,22.8,30.23,NNE,29,0.0,0.0,77,0.00,,---,0.00,VWS V14.01,2013-04-10 08:03:00,
2013-04-10 03:08:00,28.9,22.6,30.24,NNE,29,0.0,1.0,77,0.00,,---,0.00,VWS V14.01,2013-04-10 08:08:00,
2013-04-10 03:13:00,28.8,22.5,30.24,NNE,29,0.0,0.0,77,0.00,,---,0.00,VWS V14.01,2013-04-10 08:13:00,
2013-04-10 03:18:00,28.7,22.7,30.24,NNE,29,0.0,0.0,78,0.00,,---,0.00,VWS V14.01,2013-04-10 08:18:00,
2013-04-10 03:28:00,28.5,22.5,30.23,NNE,29,0.0,0.0,78,0.00,,---,0.00,VWS V14.01,2013-04-10 08:28:00,
2013-04-10 03:38:00,28.3,22.6,30.22,NNE,29,0.0,0.0,79,0.00,,---,0.00,VWS V14.01,2013-04-10 08:38:00,
2013-04-10 03:48:00,28.1,22.7,30.20,ENE,67,0.0,5.0,80,0.00,,---,0.00,VWS V14.01,2013-04-10 08:48:00,
2013-04-10 03:53:00,28.1,22.7,30.19,ENE,67,0.0,4.0,80,0.00,,---,0.00,VWS V14.01,2013-04-10 08:53:00,
2013-04-10 03:58:00,28.2,22.8,30.18,ENE,63,5.0,5.0,80,0.00,,---,0.00,VWS V14.01,2013-04-10 08:58:00,
2013-04-10 04:03:00,28.2,23.1,30.18,ENE,66,5.0,7.0,81,0.00,,---,0.00,VWS V14.01,2013-04-10 09:03:00,
2013-04-10 04:08:00,28.1,23.0,30.17,ENE,71,3.0,6.0,81,0.00,,---,0.00,VWS V14.01,2013-04-10 09:08:00,
2013-04-10 04:13:00,28.1,23.3,30.16,East,88,1.0,5.0,82,0.00,,---,0.00,VWS V14.01,2013-04-10 09:13:00,
2013-04-10 04:18:00,28.1,23.3,30.15,East,84,0.0,3.0,82,0.00,,---,0.00,VWS V14.01,2013-04-10 09:18:00,
2013-04-10 04:23:00,28.0,23.5,30.14,East,84,0.0,3.0,83,0.00,,---,0.00,VWS V14.01,2013-04-10 09:23:00,
2013-04-10 04:28:00,27.9,23.4,30.13,NE,47,1.0,4.0,83,0.00,,---,0.00,VWS V14.01,2013-04-10 09:28:00,
2013-04-10 04:33:00,27.8,23.6,30.13,North,5,0.0,3.0,84,0.00,,---,0.00,VWS V14.01,2013-04-10 09:33:00,
2013-04-10 04:38:00,27.8,23.6,30.14,East,88,0.0,3.0,84,0.00,,---,0.00,VWS V14.01,2013-04-10 09:38:00,
2013-04-10 04:43:00,27.7,23.8,30.15,NE,55,0.0,3.0,85,0.00,,---,0.00,VWS V14.01,2013-04-10 09:43:00,
2013-04-10 04:48:00,27.7,23.8,30.16,NE,55,1.0,2.0,85,0.00,,---,0.00,VWS V14.01,2013-04-10 09:48:00,
2013-04-10 04:58:00,27.5,23.9,30.16,NE,55,0.0,3.0,86,0.00,,---,0.00,VWS V14.01,2013-04-10 09:58:00,
2013-04-10 05:03:00,27.5,24.1,30.17,NE,55,0.0,0.0,87,0.00,,---,0.00,VWS V14.01,2013-04-10 10:03:00,
2013-04-10 05:13:00,27.4,24.3,30.16,NE,55,0.0,1.0,88,0.00,,---,0.00,VWS V14.01,2013-04-10 10:13:00,
2013-04-10 05:18:00,27.4,24.3,30.15,NE,55,0.0,1.0,88,0.00,,---,0.00,VWS V14.01,2013-04-10 10:18:00,
2013-04-10 05:28:00,27.4,24.6,30.18,NE,55,0.0,0.0,89,0.00,,---,0.00,VWS V14.01,2013-04-10 10:28:00,
2013-04-10 05:33:00,27.4,24.6,30.18,NE,55,0.0,2.0,89,0.00,,---,0.00,VWS V14.01,2013-04-10 10:33:00,
2013-04-10 05:38:00,27.5,25.0,30.18,NE,55,0.0,2.0,90,0.00,,---,0.00,VWS V14.01,2013-04-10 10:38:00,
2013-04-10 05:43:00,27.7,25.2,30.18,NE,55,0.0,0.0,90,0.00,,---,0.00,VWS V14.01,2013-04-10 10:43:00,
2013-04-10 05:48:00,27.8,25.2,30.19,NE,55,0.0,0.0,90,0.00,,---,0.00,VWS V14.01,2013-04-10 10:48:00,
2013-04-10 05:53:00,27.9,25.4,30.19,NE,55,0.0,0.0,90,0.00,,---,0.00,VWS V14.01,2013-04-10 10:53:00,
2013-04-10 05:58:00,28.0,25.5,30.21,NE,55,0.0,0.0,90,0.00,,---,0.00,VWS V14.01,2013-04-10 10:58:00,
2013-04-10 06:08:00,28.3,26.0,30.24,NE,55,0.0,0.0,91,0.00,,---,0.00,VWS V14.01,2013-04-10 11:08:00,
2013-04-10 06:13:00,28.3,26.0,30.25,NE,55,2.0,2.0,91,0.00,,---,0.00,VWS V14.01,2013-04-10 11:13:00,
2013-04-10 06:23:00,28.3,26.0,30.24,NE,55,0.0,0.0,91,0.00,,---,0.00,VWS V14.01,2013-04-10 11:23:00,
2013-04-10 06:28:00,28.3,26.0,30.23,NE,55,0.0,0.0,91,0.00,,---,0.00,VWS V14.01,2013-04-10 11:28:00,
2013-04-10 06:33:00,28.2,25.9,30.22,NE,55,0.0,0.0,91,0.00,,---,0.00,VWS V14.01,2013-04-10 11:33:00,
2013-04-10 06:38:00,28.2,25.9,30.22,NE,55,0.0,0.0,91,0.00,,---,0.00,VWS V14.01,2013-04-10 11:38:00,
2013-04-10 06:43:00,28.2,25.9,30.21,NE,55,2.0,3.0,91,0.00,,---,0.00,VWS V14.01,2013-04-10 11:43:00,
2013-04-10 06:53:00,28.3,26.0,30.21,NE,55,0.0,1.0,91,0.00,,---,0.00,VWS V14.01,2013-04-10 11:53:00,
2013-04-10 06:58:00,28.3,26.0,30.21,NE,55,0.0,0.0,91,0.00,,---,0.00,VWS V14.01,2013-04-10 11:58:00,
2013-04-10 07:03:00,28.4,26.1,30.22,NE,55,0.0,2.0,91,0.00,,---,0.00,VWS V14.01,2013-04-10 12:03:00,
2013-04-10 07:08:00,28.4,26.1,30.22,NE,55,0.0,0.0,91,0.00,,---,0.00,VWS V14.01,2013-04-10 12:08:00,
2013-04-10 07:13:00,28.5,26.2,30.21,NE,55,0.0,4.0,91,0.00,,---,0.00,VWS V14.01,2013-04-10 12:13:00,
2013-04-10 07:18:00,28.4,26.1,30.20,NE,55,2.0,3.0,91,0.00,,---,0.00,VWS V14.01,2013-04-10 12:18:00,
2013-04-10 07:23:00,28.5,26.2,30.20,NE,55,0.0,2.0,91,0.00,,---,0.00,VWS V14.01,2013-04-10 12:23:00,
2013-04-10 07:28:00,28.7,26.4,30.18,NE,55,2.0,4.0,91,0.00,,---,0.00,VWS V14.01,2013-04-10 12:28:00,
2013-04-10 07:38:00,28.8,26.5,30.16,ENE,57,3.0,9.0,91,0.00,,---,0.00,VWS V14.01,2013-04-10 12:38:00,
2013-04-10 07:43:00,29.0,26.7,30.16,NNE,23,2.0,5.0,91,0.00,,---,0.00,VWS V14.01,2013-04-10 12:43:00,
2013-04-10 07:48:00,29.2,26.9,30.17,ENE,68,4.0,10.0,91,0.00,,---,0.00,VWS V14.01,2013-04-10 12:48:00,
2013-04-10 07:53:00,29.4,26.8,30.17,ENE,61,7.0,12.0,90,0.00,,---,0.00,VWS V14.01,2013-04-10 12:53:00,
2013-04-10 07:58:00,29.5,26.9,30.17,ENE,77,2.0,11.0,90,0.00,,---,0.00,VWS V14.01,2013-04-10 12:58:00,
2013-04-10 08:08:00,30.1,27.3,30.15,NE,40,0.0,13.0,89,0.00,,---,0.00,VWS V14.01,2013-04-10 13:08:00,
2013-04-10 08:13:00,30.3,27.2,30.14,NE,56,5.0,13.0,88,0.00,,---,0.00,VWS V14.01,2013-04-10 13:13:00,
2013-04-10 08:18:00,30.5,27.1,30.14,ENE,76,4.0,13.0,87,0.00,,---,0.00,VWS V14.01,2013-04-10 13:18:00,
2013-04-10 08:23:00,30.9,27.5,30.15,ENE,63,3.0,12.0,87,0.00,,---,0.00,VWS V14.01,2013-04-10 13:23:00,
2013-04-10 08:33:00,31.5,26.9,30.16,ENE,61,9.0,10.0,83,0.00,,---,0.00,VWS V14.01,2013-04-10 13:33:00,
2013-04-10 08:38:00,31.7,26.8,30.15,ENE,75,3.0,11.0,82,0.00,,---,0.00,VWS V14.01,2013-04-10 13:38:00,
2013-04-10 08:48:00,32.0,26.2,30.15,NNW,346,4.0,9.0,79,0.00,,---,0.00,VWS V14.01,2013-04-10 13:48:00,
2013-04-10 08:53:00,31.8,25.7,30.16,NNE,32,1.0,12.0,78,0.00,,---,0.00,VWS V14.01,2013-04-10 13:53:00,
2013-04-10 08:58:00,32.0,25.6,30.17,NNW,327,1.0,7.0,77,0.00,,---,0.00,VWS V14.01,2013-04-10 13:58:00,
2013-04-10 09:08:00,32.3,25.6,30.17,NE,44,1.0,11.0,76,0.00,,---,0.00,VWS V14.01,2013-04-10 14:08:00,
2013-04-10 09:13:00,32.6,25.2,30.18,ENE,59,7.0,10.0,74,0.00,,---,0.00,VWS V14.01,2013-04-10 14:13:00,
2013-04-10 09:18:00,32.9,25.2,30.17,NE,52,4.0,9.0,73,0.00,,---,0.00,VWS V14.01,2013-04-10 14:18:00,
2013-04-10 09:23:00,33.1,24.7,30.17,NNE,30,2.0,14.0,71,0.00,,---,0.00,VWS V14.01,2013-04-10 14:23:00,
2013-04-10 09:28:00,33.3,24.2,30.17,ENE,61,7.0,10.0,69,0.00,,---,0.00,VWS V14.01,2013-04-10 14:28:00,
2013-04-10 09:33:00,33.3,23.9,30.17,NNE,22,3.0,14.0,68,0.00,,---,0.00,VWS V14.01,2013-04-10 14:33:00,
2013-04-10 09:38:00,33.3,22.8,30.18,East,94,11.0,15.0,65,0.00,,---,0.00,VWS V14.01,2013-04-10 14:38:00,
2013-04-10 09:43:00,33.3,22.8,30.18,NE,53,7.0,14.0,65,0.00,,---,0.00,VWS V14.01,2013-04-10 14:43:00,
2013-04-10 09:53:00,34.0,23.1,30.18,ENE,65,5.0,16.0,64,0.00,,---,0.00,VWS V14.01,2013-04-10 14:53:00,
2013-04-10 10:03:00,34.4,23.1,30.20,NE,36,4.0,13.0,63,0.00,,---,0.00,VWS V14.01,2013-04-10 15:03:00,
2013-04-10 10:08:00,34.4,23.5,30.20,NE,38,3.0,12.0,64,0.00,,---,0.00,VWS V14.01,2013-04-10 15:08:00,
2013-04-10 10:13:00,34.8,23.5,30.20,North,5,3.0,7.0,63,0.00,,---,0.00,VWS V14.01,2013-04-10 15:13:00,
2013-04-10 10:18:00,34.8,22.7,30.20,East,82,6.0,11.0,61,0.00,,---,0.00,VWS V14.01,2013-04-10 15:18:00,
2013-04-10 10:23:00,34.9,25.8,30.20,North,360,2.0,10.0,69,0.00,,---,0.00,VWS V14.01,2013-04-10 15:23:00,
2013-04-10 10:33:00,35.3,26.2,30.20,East,96,5.0,5.0,69,0.00,,---,0.00,VWS V14.01,2013-04-10 15:33:00,
2013-04-10 10:38:00,35.4,26.3,30.20,NE,48,4.0,10.0,69,0.00,,---,0.00,VWS V14.01,2013-04-10 15:38:00,
2013-04-10 10:43:00,35.9,27.1,30.19,North,360,0.0,5.0,70,0.00,,---,0.00,VWS V14.01,2013-04-10 15:43:00,
2013-04-10 10:53:00,35.6,27.5,30.19,North,10,1.0,10.0,72,0.00,,---,0.00,VWS V14.01,2013-04-10 15:53:00,
2013-04-10 10:58:00,36.1,26.9,30.19,NNE,20,2.0,7.0,69,0.00,,---,0.00,VWS V14.01,2013-04-10 15:58:00,
2013-04-10 11:03:00,36.5,27.3,30.19,ENE,76,0.0,4.0,69,0.00,,---,0.00,VWS V14.01,2013-04-10 16:03:00,
2013-04-10 11:08:00,36.9,27.3,30.19,NE,46,2.0,9.0,68,0.00,,---,0.00,VWS V14.01,2013-04-10 16:08:00,
2013-04-10 11:18:00,36.8,27.2,30.19,ENE,75,6.0,11.0,68,0.00,,---,0.00,VWS V14.01,2013-04-10 16:18:00,
2013-04-10 11:23:00,36.6,27.4,30.18,NNE,24,2.0,10.0,69,0.00,,---,0.00,VWS V14.01,2013-04-10 16:23:00,
2013-04-10 11:33:00,36.8,26.9,30.18,North,5,4.0,6.0,67,0.00,,---,0.00,VWS V14.01,2013-04-10 16:33:00,
2013-04-10 11:38:00,36.7,27.1,30.19,NNE,13,3.0,5.0,68,0.00,,---,0.00,VWS V14.01,2013-04-10 16:38:00,
2013-04-10 11:48:00,36.8,27.6,30.20,NNW,345,4.0,5.0,69,0.00,,---,0.00,VWS V14.01,2013-04-10 16:48:00,
2013-04-10 11:53:00,36.7,27.5,30.20,North,355,4.0,5.0,69,0.00,,---,0.00,VWS V14.01,2013-04-10 16:53:00,
2013-04-10 11:58:00,36.6,26.7,30.19,NNE,22,1.0,9.0,67,0.00,,---,0.00,VWS V14.01,2013-04-10 16:58:00,
2013-04-10 12:03:00,36.6,27.4,30.20,North,355,2.0,5.0,69,0.00,,---,0.00,VWS V14.01,2013-04-10 17:03:00,
2013-04-10 12:13:00,36.4,26.5,30.20,North,355,3.0,6.0,67,0.00,,---,0.00,VWS V14.01,2013-04-10 17:13:00,
2013-04-10 12:19:00,36.2,26.0,30.19,North,360,0.0,6.0,66,0.00,,---,0.00,VWS V14.01,2013-04-10 17:19:00,
2013-04-10 12:28:00,36.1,26.2,30.20,North,360,3.0,5.0,67,0.00,,---,0.00,VWS V14.01,2013-04-10 17:28:00,
2013-04-10 12:33:00,36.2,26.3,30.20,NNE,24,0.0,4.0,67,0.00,,---,0.00,VWS V14.01,2013-04-10 17:33:00,
2013-04-10 12:38:00,36.3,26.4,30.19,North,355,5.0,5.0,67,0.00,,---,0.00,VWS V14.01,2013-04-10 17:38:00,
2013-04-10 12:48:00,35.9,26.4,30.19,North,360,3.0,6.0,68,0.00,,---,0.00,VWS V14.01,2013-04-10 17:48:00,
2013-04-10 12:53:00,36.0,26.1,30.18,NNE,19,3.0,5.0,67,0.00,,---,0.00,VWS V14.01,2013-04-10 17:53:00,
2013-04-10 12:58:00,36.1,26.2,30.18,North,355,2.0,6.0,67,0.00,,---,0.00,VWS V14.01,2013-04-10 17:58:00,
2013-04-10 13:03:00,36.2,25.6,30.18,NNE,24,3.0,5.0,65,0.00,,---,0.00,VWS V14.01,2013-04-10 18:03:00,
2013-04-10 13:08:00,36.1,25.9,30.19,ENE,75,10.0,14.0,66,0.00,,---,0.00,VWS V14.01,2013-04-10 18:08:00,
2013-04-10 13:18:00,35.9,25.3,30.18,NE,39,2.0,6.0,65,0.00,,---,0.00,VWS V14.01,2013-04-10 18:18:00,
2013-04-10 13:23:00,35.9,24.9,30.17,NNE,15,3.0,9.0,64,0.00,,---,0.00,VWS V14.01,2013-04-10 18:23:00,
2013-04-10 13:33:00,36.7,24.5,30.17,NNW,346,2.0,6.0,61,0.00,,---,0.00,VWS V14.01,2013-04-10 18:33:00,
2013-04-10 13:38:00,36.8,25.0,30.17,North,11,0.0,6.0,62,0.00,,---,0.00,VWS V14.01,2013-04-10 18:38:00,
2013-04-10 13:43:00,36.9,25.1,30.18,NNE,27,4.0,7.0,62,0.00,,---,0.00,VWS V14.01,2013-04-10 18:43:00,
2013-04-10 13:53:00,36.4,25.0,30.17,NNE,14,5.0,10.0,63,0.00,,---,0.00,VWS V14.01,2013-04-10 18:53:00,
2013-04-10 13:58:00,36.5,25.1,30.17,North,360,4.0,5.0,63,0.00,,---,0.00,VWS V14.01,2013-04-10 18:58:00,
2013-04-10 14:03:00,36.3,25.3,30.17,North,355,2.0,11.0,64,0.00,,---,0.00,VWS V14.01,2013-04-10 19:03:00,
2013-04-10 14:08:00,36.0,25.0,30.17,NE,48,4.0,7.0,64,0.00,,---,0.00,VWS V14.01,2013-04-10 19:08:00,
2013-04-10 14:13:00,35.9,25.7,30.17,NNE,15,0.0,8.0,66,0.00,,---,0.00,VWS V14.01,2013-04-10 19:13:00,
2013-04-10 14:18:00,36.0,25.0,30.17,NNE,16,2.0,5.0,64,0.00,,---,0.00,VWS V14.01,2013-04-10 19:18:00,
2013-04-10 14:23:00,36.0,25.4,30.17,ENE,76,4.0,5.0,65,0.00,,---,0.00,VWS V14.01,2013-04-10 19:23:00,
2013-04-10 14:28:00,35.7,25.5,30.17,North,360,2.0,10.0,66,0.00,,---,0.00,VWS V14.01,2013-04-10 19:28:00,
2013-04-10 14:38:00,35.5,25.3,30.16,North,11,1.0,6.0,66,0.00,,---,0.00,VWS V14.01,2013-04-10 19:38:00,
2013-04-10 14:43:00,35.4,25.2,30.15,North,9,1.0,6.0,66,0.00,,---,0.00,VWS V14.01,2013-04-10 19:43:00,
2013-04-10 14:48:00,35.2,25.4,30.15,NE,45,2.0,9.0,67,0.00,,---,0.00,VWS V14.01,2013-04-10 19:48:00,
2013-04-10 14:53:00,35.2,25.4,30.16,North,360,1.0,6.0,67,0.00,,---,0.00,VWS V14.01,2013-04-10 19:53:00,
2013-04-10 15:03:00,34.7,25.2,30.17,NNE,30,3.0,7.0,68,0.00,,---,0.00,VWS V14.01,2013-04-10 20:03:00,
2013-04-10 15:08:00,34.4,25.3,30.17,NNE,18,6.0,11.0,69,0.00,,---,0.00,VWS V14.01,2013-04-10 20:08:00,
2013-04-10 15:13:00,34.4,25.6,30.17,North,360,3.0,12.0,70,0.00,,---,0.00,VWS V14.01,2013-04-10 20:13:00,
2013-04-10 15:23:00,34.4,25.3,30.17,NNE,30,6.0,6.0,69,0.00,,---,0.00,VWS V14.01,2013-04-10 20:23:00,
2013-04-10 15:33:00,34.0,25.3,30.17,North,11,3.0,11.0,70,0.00,,---,0.00,VWS V14.01,2013-04-10 20:33:00,
2013-04-10 15:38:00,34.3,25.5,30.17,NE,41,2.0,6.0,70,0.00,,---,0.00,VWS V14.01,2013-04-10 20:38:00,
2013-04-10 15:43:00,34.4,25.3,30.17,North,360,4.0,4.0,69,0.00,,---,0.00,VWS V14.01,2013-04-10 20:43:00,
2013-04-10 15:48:00,34.4,25.0,30.17,NNE,25,1.0,5.0,68,0.00,,---,0.00,VWS V14.01,2013-04-10 20:48:00,
2013-04-10 15:53:00,34.4,24.6,30.17,North,9,3.0,5.0,67,0.00,,---,0.00,VWS V14.01,2013-04-10 20:53:00,
2013-04-10 15:58:00,34.4,25.0,30.17,NE,38,0.0,7.0,68,0.00,,---,0.00,VWS V14.01,2013-04-10 20:58:00,
2013-04-10 16:03:00,34.4,25.0,30.17,ENE,61,2.0,8.0,68,0.00,,---,0.00,VWS V14.01,2013-04-10 21:03:00,
2013-04-10 16:08:00,34.4,25.3,30.17,NNE,26,0.0,7.0,69,0.00,,---,0.00,VWS V14.01,2013-04-10 21:08:00,
2013-04-10 16:13:00,34.4,24.6,30.17,NNE,13,2.0,6.0,67,0.00,,---,0.00,VWS V14.01,2013-04-10 21:13:00,
2013-04-10 16:18:00,34.2,24.4,30.17,North,360,2.0,5.0,67,0.00,,---,0.00,VWS V14.01,2013-04-10 21:18:00,
2013-04-10 16:28:00,34.2,24.4,30.16,NNW,348,4.0,5.0,67,0.00,,---,0.00,VWS V14.01,2013-04-10 21:28:00,
2013-04-10 16:33:00,34.1,24.3,30.16,NE,40,1.0,11.0,67,0.00,,---,0.00,VWS V14.01,2013-04-10 21:33:00,
2013-04-10 16:38:00,34.0,24.2,30.16,NW,325,3.0,7.0,67,0.00,,---,0.00,VWS V14.01,2013-04-10 21:38:00,
2013-04-10 16:48:00,34.1,24.0,30.17,NE,35,0.0,3.0,66,0.00,,---,0.00,VWS V14.01,2013-04-10 21:48:00,
2013-04-10 16:53:00,34.2,23.7,30.17,NE,55,1.0,5.0,65,0.00,,---,0.00,VWS V14.01,2013-04-10 21:53:00,
2013-04-10 16:58:00,34.1,24.0,30.17,NNE,25,3.0,9.0,66,0.00,,---,0.00,VWS V14.01,2013-04-10 21:58:00,
2013-04-10 17:03:00,33.9,23.4,30.16,ENE,62,3.0,7.0,65,0.00,,---,0.00,VWS V14.01,2013-04-10 22:03:00,
2013-04-10 17:08:00,33.9,23.4,30.16,NE,39,0.0,4.0,65,0.00,,---,0.00,VWS V14.01,2013-04-10 22:08:00,
2013-04-10 17:13:00,33.8,22.9,30.17,NNE,21,1.0,4.0,64,0.00,,---,0.00,VWS V14.01,2013-04-10 22:13:00,
2013-04-10 17:18:00,33.7,23.2,30.16,NNE,26,0.0,10.0,65,0.00,,---,0.00,VWS V14.01,2013-04-10 22:18:00,
2013-04-10 17:28:00,33.7,23.2,30.15,ENE,75,5.0,5.0,65,0.00,,---,0.00,VWS V14.01,2013-04-10 22:28:00,
2013-04-10 17:33:00,33.7,23.2,30.15,NNE,29,0.0,9.0,65,0.00,,---,0.00,VWS V14.01,2013-04-10 22:33:00,
2013-04-10 17:38:00,33.6,23.5,30.16,NNE,28,1.0,4.0,66,0.00,,---,0.00,VWS V14.01,2013-04-10 22:38:00,
2013-04-10 17:43:00,33.7,23.2,30.15,NNE,28,2.0,4.0,65,0.00,,---,0.00,VWS V14.01,2013-04-10 22:43:00,
2013-04-10 17:48:00,33.7,23.2,30.15,NNE,28,1.0,3.0,65,0.00,,---,0.00,VWS V14.01,2013-04-10 22:48:00,
2013-04-10 17:53:00,33.6,23.1,30.14,NE,51,1.0,4.0,65,0.00,,---,0.00,VWS V14.01,2013-04-10 22:53:00,
2013-04-10 17:58:00,33.5,23.4,30.13,East,91,2.0,5.0,66,0.00,,---,0.00,VWS V14.01,2013-04-10 22:58:00,
2013-04-10 18:03:00,33.5,23.0,30.13,NNE,21,2.0,6.0,65,0.00,,---,0.00,VWS V14.01,2013-04-10 23:03:00,
2013-04-10 18:08:00,33.4,22.9,30.12,North,5,2.0,5.0,65,0.00,,---,0.00,VWS V14.01,2013-04-10 23:08:00,
2013-04-10 18:13:00,33.5,23.4,30.12,NNE,29,2.0,6.0,66,0.00,,---,0.00,VWS V14.01,2013-04-10 23:13:00,
2013-04-10 18:23:00,33.6,23.5,30.13,ESE,109,3.0,5.0,66,0.00,,---,0.00,VWS V14.01,2013-04-10 23:23:00,
2013-04-10 18:33:00,33.6,23.1,30.12,NE,46,4.0,9.0,65,0.00,,---,0.00,VWS V14.01,2013-04-10 23:33:00,
2013-04-10 18:38:00,33.6,23.5,30.12,NNE,20,1.0,5.0,66,0.00,,---,0.00,VWS V14.01,2013-04-10 23:38:00,
2013-04-10 18:43:00,33.5,23.4,30.12,NNE,31,1.0,6.0,66,0.00,,---,0.00,VWS V14.01,2013-04-10 23:43:00,
2013-04-10 18:48:00,33.5,23.4,30.12,NNE,21,1.0,4.0,66,0.00,,---,0.00,VWS V14.01,2013-04-10 23:48:00,
2013-04-10 18:58:00,33.5,23.4,30.12,ENE,78,5.0,5.0,66,0.00,,---,0.00,VWS V14.01,2013-04-10 23:58:00,
2013-04-10 19:03:00,33.5,23.0,30.12,ENE,65,0.0,5.0,65,0.00,,---,0.00,VWS V14.01,2013-04-11 00:03:00,
2013-04-10 19:13:00,33.4,23.3,30.11,ENE,65,0.0,0.0,66,0.00,,---,0.00,VWS V14.01,2013-04-11 00:13:00,
2013-04-10 19:18:00,33.3,23.5,30.11,ENE,61,0.0,2.0,67,0.00,,---,0.00,VWS V14.01,2013-04-11 00:18:00,
2013-04-10 19:23:00,33.3,23.2,30.12,ENE,61,0.0,0.0,66,0.00,,---,0.00,VWS V14.01,2013-04-11 00:23:00,
2013-04-10 19:28:00,33.1,23.4,30.12,ENE,60,0.0,0.0,67,0.00,,---,0.00,VWS V14.01,2013-04-11 00:28:00,
2013-04-10 19:33:00,33.0,23.2,30.12,ENE,61,0.0,1.0,67,0.00,,---,0.00,VWS V14.01,2013-04-11 00:33:00,
2013-04-10 19:38:00,32.8,23.1,30.11,ENE,60,0.0,2.0,67,0.00,,---,0.00,VWS V14.01,2013-04-11 00:38:00,
2013-04-10 19:43:00,32.6,22.9,30.11,ENE,60,0.0,0.0,67,0.00,,---,0.00,VWS V14.01,2013-04-11 00:43:00,
2013-04-10 19:48:00,32.6,23.2,30.11,ENE,60,0.0,0.0,68,0.00,,---,0.00,VWS V14.01,2013-04-11 00:48:00,
2013-04-10 19:53:00,32.5,23.1,30.12,ENE,60,0.0,0.0,68,0.00,,---,0.00,VWS V14.01,2013-04-11 00:53:00,
2013-04-10 19:58:00,32.4,23.0,30.12,ENE,60,0.0,0.0,68,0.00,,---,0.00,VWS V14.01,2013-04-11 00:58:00,
2013-04-10 20:03:00,32.3,22.9,30.12,ENE,59,0.0,2.0,68,0.00,,---,0.00,VWS V14.01,2013-04-11 01:03:00,
2013-04-10 20:08:00,32.2,22.8,30.12,ENE,59,0.0,0.0,68,0.00,,---,0.00,VWS V14.01,2013-04-11 01:08:00,
2013-04-10 20:18:00,32.1,23.1,30.12,ENE,59,0.0,0.0,69,0.00,,---,0.00,VWS V14.01,2013-04-11 01:18:00,
2013-04-10 20:23:00,32.1,23.4,30.12,ENE,60,2.0,2.0,70,0.00,,---,0.00,VWS V14.01,2013-04-11 01:23:00,
2013-04-10 20:28:00,32.0,23.3,30.11,ENE,59,1.0,2.0,70,0.00,,---,0.00,VWS V14.01,2013-04-11 01:28:00,
2013-04-10 20:33:00,31.9,23.2,30.11,ENE,58,0.0,1.0,70,0.00,,---,0.00,VWS V14.01,2013-04-11 01:33:00,
2013-04-10 20:38:00,31.8,23.5,30.11,NE,51,0.0,2.0,71,0.00,,---,0.00,VWS V14.01,2013-04-11 01:38:00,
2013-04-10 20:48:00,31.6,23.6,30.10,NNE,19,1.0,6.0,72,0.00,,---,0.00,VWS V14.01,2013-04-11 01:48:00,
2013-04-10 20:58:00,31.4,24.1,30.10,NNE,19,0.0,2.0,74,0.00,,---,0.00,VWS V14.01,2013-04-11 01:58:00,
2013-04-10 21:03:00,31.3,24.3,30.09,NNE,19,0.0,2.0,75,0.00,,---,0.00,VWS V14.01,2013-04-11 02:03:00,
2013-04-10 21:08:00,31.2,24.2,30.11,ENE,70,1.0,3.0,75,0.00,,---,0.00,VWS V14.01,2013-04-11 02:08:00,
2013-04-10 21:13:00,31.1,24.1,30.11,ENE,68,0.0,2.0,75,0.00,,---,0.00,VWS V14.01,2013-04-11 02:13:00,
2013-04-10 21:23:00,31.2,24.2,30.11,ENE,57,0.0,4.0,75,0.00,,---,0.00,VWS V14.01,2013-04-11 02:23:00,
2013-04-10 21:28:00,31.3,24.3,30.11,ENE,61,3.0,5.0,75,0.00,,---,0.00,VWS V14.01,2013-04-11 02:28:00,
2013-04-10 21:33:00,31.4,24.1,30.11,ENE,74,0.0,5.0,74,0.00,,---,0.00,VWS V14.01,2013-04-11 02:33:00,
2013-04-10 21:38:00,31.4,24.1,30.11,ENE,61,5.0,5.0,74,0.00,,---,0.00,VWS V14.01,2013-04-11 02:38:00,
2013-04-10 21:43:00,31.5,23.9,30.10,ENE,74,1.0,6.0,73,0.00,,---,0.00,VWS V14.01,2013-04-11 02:43:00,
2013-04-10 21:48:00,31.5,23.9,30.10,ENE,72,5.0,5.0,73,0.00,,---,0.00,VWS V14.01,2013-04-11 02:48:00,
2013-04-10 21:53:00,31.5,23.9,30.10,NE,46,1.0,5.0,73,0.00,,---,0.00,VWS V14.01,2013-04-11 02:53:00,
2013-04-10 21:58:00,31.5,23.5,30.11,ENE,72,4.0,5.0,72,0.00,,---,0.00,VWS V14.01,2013-04-11 02:58:00,
2013-04-10 22:08:00,31.6,23.3,30.10,NNE,28,0.0,6.0,71,0.00,,---,0.00,VWS V14.01,2013-04-11 03:08:00,
2013-04-10 22:13:00,31.6,23.3,30.11,ENE,73,3.0,8.0,71,0.00,,---,0.00,VWS V14.01,2013-04-11 03:13:00,
2013-04-10 22:18:00,31.7,23.4,30.11,East,82,0.0,5.0,71,0.00,,---,0.00,VWS V14.01,2013-04-11 03:18:00,
2013-04-10 22:23:00,31.8,22.8,30.12,NE,53,4.0,10.0,69,0.00,,---,0.00,VWS V14.01,2013-04-11 03:23:00,
2013-04-10 22:28:00,32.1,21.7,30.12,ENE,64,4.0,11.0,65,0.00,,---,0.00,VWS V14.01,2013-04-11 03:28:00,
2013-04-10 22:33:00,32.5,19.0,30.12,East,91,14.0,15.0,57,0.00,,---,0.00,VWS V14.01,2013-04-11 03:33:00,
2013-04-10 22:38:00,32.7,17.9,30.12,ENE,58,11.0,18.0,54,0.00,,---,0.00,VWS V14.01,2013-04-11 03:38:00,
2013-04-10 22:48:00,32.8,17.1,30.12,East,86,11.0,19.0,52,0.00,,---,0.00,VWS V14.01,2013-04-11 03:48:00,
2013-04-10 22:53:00,32.7,17.0,30.11,NE,45,6.0,14.0,52,0.00,,---,0.00,VWS V14.01,2013-04-11 03:53:00,
2013-04-10 23:03:00,32.5,17.3,30.11,ENE,67,4.0,14.0,53,0.00,,---,0.00,VWS V14.01,2013-04-11 04:03:00,
2013-04-10 23:08:00,32.4,17.6,30.11,ENE,63,4.0,12.0,54,0.00,,---,0.00,VWS V14.01,2013-04-11 04:08:00,
2013-04-10 23:13:00,32.4,17.2,30.11,East,98,12.0,15.0,53,0.00,,---,0.00,VWS V14.01,2013-04-11 04:13:00,
2013-04-10 23:18:00,32.3,17.1,30.11,ENE,59,4.0,12.0,53,0.00,,---,0.00,VWS V14.01,2013-04-11 04:18:00,
2013-04-10 23:23:00,32.1,17.3,30.11,East,88,10.0,11.0,54,0.00,,---,0.00,VWS V14.01,2013-04-11 04:23:00,
2013-04-10 23:33:00,32.0,17.7,30.09,ENE,69,5.0,12.0,55,0.00,,---,0.00,VWS V14.01,2013-04-11 04:33:00,
2013-04-10 23:38:00,32.0,17.2,30.09,East,91,6.0,14.0,54,0.00,,---,0.00,VWS V14.01,2013-04-11 04:38:00,
2013-04-10 23:43:00,31.9,17.6,30.08,ENE,61,2.0,8.0,55,0.00,,---,0.00,VWS V14.01,2013-04-11 04:43:00,
2013-04-10 23:53:00,31.7,18.2,30.08,ENE,65,14.0,16.0,57,0.00,,---,0.00,VWS V14.01,2013-04-11 04:53:00,
2013-04-10 23:58:00,31.7,17.8,30.08,East,82,3.0,14.0,56,0.00,,---,0.00,VWS V14.01,2013-04-11 04:58:00,